TimeMST,TemperatureF,Dew PointF,Humidity,Sea Level PressureIn,VisibilityMPH,Wind Direction,Wind SpeedMPH,Gust SpeedMPH,PrecipitationIn,Events,Conditions,WindDirDegrees,DateUTC
12:53 AM,7.0,-0.0,73,30.39,10.0,South,4.6,-,N/A,,Overcast,170,2013-02-28 07:53:00
1:53 AM,7.0,-0.9,70,30.36,10.0,South,5.8,-,N/A,,Clear,190,2013-02-28 08:53:00
2:53 AM,6.1,-0.9,73,30.33,10.0,SSW,13.8,-,N/A,,Clear,200,2013-02-28 09:53:00
3:53 AM,3.9,-2.9,73,30.36,10.0,SW,4.6,-,N/A,,Clear,220,2013-02-28 10:53:00
4:53 AM,7.0,-2.9,64,30.37,10.0,WSW,4.6,-,N/A,,Clear,250,2013-02-28 11:53:00
5:53 AM,8.1,-0.9,67,30.39,10.0,SW,13.8,-,N/A,,Clear,230,2013-02-28 12:53:00
7:53 AM,10.0,1.0,67,30.42,10.0,WSW,8.1,-,N/A,,Clear,250,2013-02-28 14:53:00
8:53 AM,17.1,5.0,59,30.42,-9999.0,West,4.6,-,N/A,,Clear,270,2013-02-28 15:53:00
9:53 AM,21.0,10.0,63,30.38,10.0,WSW,12.7,-,N/A,,Partly Cloudy,240,2013-02-28 16:53:00
10:53 AM,26.1,10.0,51,30.34,10.0,NNW,4.6,-,N/A,,Overcast,340,2013-02-28 17:53:00
11:53 AM,26.1,10.0,51,30.35,10.0,NE,4.6,-,N/A,,Overcast,50,2013-02-28 18:53:00
12:53 PM,27.0,10.0,49,30.30,-9999.0,Calm,Calm,-,N/A,,Overcast,0,2013-02-28 19:53:00
2:53 PM,28.0,14.0,56,30.29,-9999.0,Variable,4.6,-,N/A,,Clear,0,2013-02-28 21:53:00
3:53 PM,27.0,12.9,56,30.31,10.0,West,20.7,25.3,N/A,,Clear,280,2013-02-28 22:53:00
4:53 PM,25.0,12.0,58,30.31,10.0,West,21.9,-,N/A,,Mostly Cloudy,260,2013-02-28 23:53:00
5:53 PM,24.1,12.9,62,30.34,10.0,WNW,5.8,-,N/A,,Overcast,290,2013-03-01 00:53:00
6:53 PM,21.9,12.9,68,30.35,10.0,SSW,3.5,-,N/A,,Overcast,210,2013-03-01 01:53:00
7:53 PM,18.0,10.9,74,30.38,10.0,West,10.4,-,N/A,,Clear,270,2013-03-01 02:53:00
8:53 PM,17.1,10.0,74,30.34,10.0,West,13.8,-,N/A,,Clear,280,2013-03-01 03:53:00
9:53 PM,21.0,12.9,71,30.30,10.0,WNW,20.7,-,N/A,,Clear,290,2013-03-01 04:53:00
10:53 PM,19.9,12.0,71,30.27,10.0,WNW,17.3,-,N/A,,Clear,290,2013-03-01 05:53:00
11:53 PM,19.9,12.0,71,30.30,10.0,WNW,11.5,-,N/A,,Clear,290,2013-03-01 06:53:00